cliquez pour ajouter le site Runraid à vos favoris  English version (google)  Retour à l'accueil Ecrire à l'auteur du site Runraid : Michel Jourdan


 Visitez La Boutique 


 Diagonale des Fous 

Ecrire au créateur du site : Michel Jourdan
Contact


2015-01-25 - Course Tangue

Pour consulter le palmarès d'un coureur, un clic sur son nom !

Vous avez des remarques, corrections, ... sur ces résultats , un clic sur --> pour me transmettre toute information concernant les classements


Course Tangue - 2015 : classement des 617 finishers
Place Nom Temps Cat. Club Sexe Clt/cat.
Place Nom Temps Cat. Club Sexe Clt/cat.
1 CADET JEAN MARIE 02:16:45 SEM RDB M 206
2 CARCANY CEDRIC 02:16:48 SEM - M 350
3 VINCENT Alexis 02:16:53 SEM - M 67
4 PAYET RAYNAUD 02:21:41 SEM - M 581
5 TRULES GERALDO 02:22:17 SEM ACSP M 292
6 HOARAU PATRICE 02:23:21 SEM COSPI M 276
7 PAYET JONATHAN 02:29:58 SEM - M 576
8 CHAMPION SEBASTIEN 02:31:40 SEM - M 355
9 MARTINEZ RAFAEL 02:32:36 SEM - M 532
10 ADRAS OLIVIER 02:35:19 SEM - M 758
11 SERY DAMIEN 02:37:29 SEM - M 650
12 VITRY JEAN PHILIPPE 02:37:47 SEM DA M 82
13 PAPON FRANCOIS 02:38:50 SEM - M 91
14 DESSERPRIT Mathieu 02:40:01 SEM - M 254
15 HOARAU STEVEN 02:40:06 SEM - M 452
16 NOEL ALAIN JEAN 02:40:35 SEM - M 561
17 TOUNEJI JIMMY 02:42:31 SEM C.A.S.S. M 691
18 CLAPIER DIDIER 02:42:43 SEM - M 287
19 PAYET YANNICK 02:43:43 SEM - M 584
20 JOBERT Christian 02:44:27 V3M - M 1 V3M 750
21 CORBEL YVONNICK 02:44:41 V1M C.A.S.S. M 1 V1M 52
22 THAZAR Fabien 02:45:03 SEM - M 20 SEM 141
23 HOAREAU THIERRY 02:45:19 SEM - M 21 SEM 289
24 CLAPIER LEON YANNICK 02:45:29 V1M - M 2 V1M 288
25 PIGEON jean philippe 02:45:59 SEM - M 22 SEM 200
26 ABRANTES HERVE 02:46:47 SEM - M 23 SEM 297
27 EMMA WILLY 02:47:35 SEM - M 24 SEM 408
28 DELPHINE fabrizio 02:47:45 SEM - M 25 SEM 203
29 LEVENEUR RODOLPHE 02:48:29 JUM - M 1 JUM 510
30 STROPPOLO walter 02:49:23 V1M - M 3 V1M 15
31 LEFEUVRE JEROME 02:51:42 SEM - M 26 SEM 491
32 BLARD EMMANUEL 02:55:14 SEM - M 27 SEM 331
33 JULIE WILLY 02:55:47 V1M - M 4 V1M 467
34 RIVIERE JACQUES 02:55:48 V1M - M 5 V1M 619
35 BALZANET ULRIC 02:57:02 SEM - M 28 SEM 315
36 KEREMBRUN JEAN MARIE 02:57:04 SEM - M 29 SEM 719
37 CONTRERAS BENOIT 02:57:25 SEM - M 30 SEM 128
38 HUET Raphael 02:57:25 SEM - M 31 SEM 261
39 GRONDIN LUDOVIC 02:57:25 SEM - M 32 SEM 440
40 BENARD FREDERIC 02:57:47 SEM - M 33 SEM 327
41 LEBON JACKY 02:58:30 V2M RDB M 1 V2M 295
42 CHARRETIER Nicolas 02:59:29 SEM - M 34 SEM 284
43 LEPINAY VINCENT 02:59:40 SEM CASL M 35 SEM 508
44 LAM KAM MATTHIAS 02:59:45 SEM - M 36 SEM 474
45 CARRET ESTELLE 03:00:05 SEF DA F 1ere F 268
46 THERINCOURT Gerald 03:00:30 SEM - M 37 SEM 114
47 TESTAN JONATHAN 03:00:43 ESM C.A.S.S. M 1 ESM 679
48 DELPECH Jimmie 0,125694444444444 SEM - M 38 SEM 285
49 VITRY JOSEPH DANY 03:01:09 V1M ATHLETIQUE M 6 V1M 701
50 FONTAINE JEAN STEPHANE 03:01:42 V1M - M 7 V1M 420
51 GONTHIER DAVID 03:01:52 SEM CASL M 39 SEM 263
52 HOARAU JOHN 03:01:52 SEM CASL M 40 SEM 64
53 PAYET JEAN BERNARD 03:02:19 V2M - M 2 V2M 574
54 MUSSARD JEAN FABRICE 03:02:33 V1M - M 8 V1M 555
55 DUPUIS SYLVAIN 03:02:36 SEM - M 41 SEM 405
56 PASQUET YANN 03:02:42 V1M - M 9 V1M 567
57 FONTAINE BERTRAND 03:03:51 SEM - M 42 SEM 419
58 PIERRAT SEBASTIEN 03:03:54 V1M - M 10 V1M 593
59 CHAVANNE adrien 03:04:13 SEM - M 43 SEM 99
60 CLAUDIN MICHAEL 03:04:20 SEM COSPI M 44 SEM 27
61 HERIAU ALEXANDRE 03:04:29 SEM - M 45 SEM 447
62 PERRAULT JEAN MARC 03:04:50 V2M - M 3 V2M 587
63 FONTAINE stephen 03:05:44 SEM - M 46 SEM 253
64 LEPINAY LEBIHAN Alex 03:05:46 SEM - M 47 SEM 9
65 GARCIN JACKY 03:06:47 SEM - M 48 SEM 230
66 BERTIL Erickson 03:07:22 SEM - M 49 SEM 162
67 TURPIN Damien 03:07:47 SEM - M 50 SEM 243
68 BURNY Yoan 03:08:05 SEM - M 51 SEM 195
69 GRONDIN JUDICAEL 03:08:37 SEM RDB M 52 SEM 438
70 GRONDIN Jean Baptiste 03:08:37 V1M - M 11 V1M 290
71 LOUIS NICOLAS 03:09:24 SEM - M 53 SEM 518
72 HOARAU CHARLES HENRI 03:09:26 V2M - M 4 V2M 449
73 MOREL JEAN ALAIN 03:09:48 V1M - M 12 V1M 549
74 SAUTRON JEAN FELIX 03:10:03 V2M - M 5 V2M 767
75 MARTIN ERIC 03:11:04 V1M - M 13 V1M 528
76 DAMOUR YANNICK 03:11:20 V1M - M 14 V1M 382
77 DUCHEMANN DANIEL 03:11:42 V1M - M 15 V1M 768
78 MAREUX EUGENIE 03:11:43 SEF CAPC F 2eme F 283
79 BEGUE BERNARD 03:11:47 V2M - M 6 V2M 323
80 ROBERT JEAN ELIOT 03:11:49 V2M - M 7 V2M 621
81 BARBIN FREDERIC 03:13:35 V1M - M 16 V1M 316
82 NARANIN DIMITRI 03:13:46 SEM - M 54 SEM 119
83 PAYET VIVIAN 03:15:15 SEM - M 55 SEM 582
84 TURPIN PATRICE 03:15:15 SEM - M 56 SEM 731
85 ROUGET jean willy 03:15:37 SEM - M 57 SEM 120
86 NIRLO Jean Stephane 03:16:17 V1M - M 17 V1M 199
87 POUILLE AURELIA 03:16:43 SEF - F 3eme F 600
88 NOURRY FREDDY 03:16:44 SEM RDB M 58 SEM 563
89 TECHER IVAN 03:16:48 ESM - M 2 ESM 673
90 CLAIN JEAN FRANCOIS 03:17:19 V2M - M 8 V2M 363
91 MARTINS PIERRE YVES 03:17:30 SEM - M 59 SEM 533
92 MAILLOT JEAN PIERRE 03:17:53 SEM - M 60 SEM 522
93 NIOBE JOHAN 03:18:13 SEM - M 61 SEM 560
94 BACH FREDERIC 03:18:29 SEM - M 62 SEM 309
95 BARBE Stephane 03:18:59 SEM - M 63 SEM 220
96 JANIS bruno 03:19:48 V1M - M 18 V1M 183
97 ETHEVE GIOVANNI 03:19:53 JUM - M 2 JUM 410
98 THIONVILLE JEROME 03:20:55 SEM - M 64 SEM 680
99 CHAHBAZIAN STEPHANE 03:21:22 SEM - M 65 SEM 354
100 MILOVANOVIC NICOLAS 03:21:40 SEM - M 66 SEM 769
101 CLAIN ERIC 03:21:42 SEM DSA M 67 SEM 58
102 LEPINAY JEAN DIDIER 03:21:44 SEM - M 68 SEM 503
103 CHAMAND ELVIS 03:21:51 V1M - M 19 V1M 726
104 PICARD THIERRY 03:21:57 SEM - M 69 SEM 708
105 PAYET ERIC 03:22:40 V1M - M 20 V1M 571
106 RENNEVILLE YANNICK 03:23:20 SEM - M 70 SEM 612
107 HOYAUX XAVIER 03:23:22 V1M - M 21 V1M 762
108 MUSSARD Michael 03:23:27 V1M - M 22 V1M 248
109 CLAIN CLEMENT 03:23:30 V2M - M 9 V2M 362
110 CHOPINET JEAN IDRIS 03:23:33 SEM - M 71 SEM 361
111 PAGES Adrien 03:23:39 SEM - M 72 SEM 272
112 HOARAU MICHEL ULYS 03:24:17 V2M CALS SUD M 10 V2M 266
113 LEMARCHAND JULIEN 03:24:19 SEM - M 73 SEM 495
114 TECHER BARNABE 03:24:32 V1M - M 23 V1M 671
115 AURE YVON 03:24:55 V2M ACSP M 11 V2M 306
116 MOREL JEAN DENIS 03:25:04 V2M - M 12 V2M 550
117 PAYET Joel 03:25:50 SEM - M 74 SEM 182
118 FONTAINE MICHEL PATRICK 03:25:59 V1M - M 24 V1M 424
119 DOMBECK Nicolas 03:26:18 SEM - M 75 SEM 21
120 LEPERLIER FREDERIC 03:26:21 SEM - M 76 SEM 498
121 SIROUX ELISABETH 03:26:47 SEF CAPOSS F 4eme F 168
122 PLENAR Benoit 03:27:08 V1M - M 25 V1M 50
123 MAILLOT JOHANN 03:27:14 SEM - M 77 SEM 242
124 HOARAU mathieu 03:27:22 SEM - M 78 SEM 207
125 FACONNIER TEDDY 03:27:29 SEM - M 79 SEM 239
126 AMOUNY STEPHANE 03:27:33 SEM - M 80 SEM 302
127 SERY SYLVIE 03:27:34 SEF - F 5eme F 652
128 MARTIN Jean Francois 03:28:24 SEM - M 81 SEM 60
129 BAILLIF PATRICK 03:28:59 V2M - M 13 V2M 312
130 TURPIN ALAIN 03:29:00 V1M C.A.S.S. M 26 V1M 692
131 DEWAELE kevin 03:29:05 SEM - M 82 SEM 92
132 SERY laurent 03:29:15 V1M - M 27 V1M 113
133 PICARD Antoine 03:29:29 SEM - M 83 SEM 158
134 BAREGE PATRICE 03:30:26 SEM - M 84 SEM 318
135 NICOLE Frederic 03:30:43 SEM - M 85 SEM 61
136 MUSSARD LUCAS 03:31:30 JUM - M 3 JUM 556
137 MEZINO SAMUEL 03:31:55 SEM - M 86 SEM 542
138 GONTHIER JOE 03:32:02 ESM - M 3 ESM 433
139 LEFEVRE CHRISTIAN 03:32:09 V2M - M 14 V2M 492
140 FONTAINE MANQUE 6 CEDRIC 03:32:17 SEM - M 87 SEM 425
141 TURPIN Fritz Bruno 03:32:22 V1M - M 28 V1M 224
142 HOARAU FREDERIC 03:32:43 V1M DSA M 29 V1M 450
143 AVANZINI NICOLAS 03:32:43 SEM - M 88 SEM 307
144 MICHEL KATIA 03:32:44 V1F - F 6 eme F / 1 V1F 544
145 HOARAU jean olivier 03:32:44 V1M - M 30 V1M 146
146 BRACHET THOMAS 03:32:54 SEM DENIV M 89 SEM 340
147 BOYER NICOL 03:33:02 V1M - M 31 V1M 339
148 CAILLIEZ BENOIT 03:33:28 SEM CALS SUD M 90 SEM 43
149 BENARD DIDIER 03:34:21 SEM - M 91 SEM 748
150 TEMAEVA Heimata thierry 03:34:22 SEM - M 92 SEM 131
151 DE BALMANN YOANN 03:34:31 SEM - M 93 SEM 734
152 LAURET DANIEL 03:34:54 V1M - M 32 V1M 479
153 MARIMOUTOU JEAN LUC 03:34:57 V1M - M 33 V1M 526
154 DAMOUR HENRI LUC 03:35:12 V2M ACSP M 15 V2M 380
155 REBOULE VIRGINIE 03:36:03 SEF CAPP F 7 eme F / 6 SEF 219
156 LAUDE NADINE 03:37:31 V1F - F 8 eme F / 2 V1F 477
157 ROBERT YANN 03:37:44 SEM - M 94 SEM 627
158 HOARAU Pascal 03:37:47 SEM - M 95 SEM 185
159 MAZEAU BERNARD 03:37:59 V1M - M 34 V1M 536
160 AGATHE MARIE JAMES 03:38:45 SEF - F 9 eme F / 7 SEF 298
161 BARRET MICKAEL 03:39:33 SEM - M 96 SEM 319
162 TECHER YOHAN 03:39:36 SEM - M 97 SEM 676
163 GONNEVILLE JEAN MICHEL 03:39:38 V1M - M 35 V1M 432
164 REBOULE FREDERIC HENRI 03:39:46 SEM CAPP M 98 SEM 218
165 PAYET JOSEPH YVES 03:39:57 V3M - M 2 V3M 577
166 DORLA ALIX 03:40:08 V1M - M 36 V1M 250
167 FAYE MAMADOU FADEL 03:40:19 SEM DENIV M 99 SEM 157
168 CHARRONNEAU MAXIME 03:40:24 SEM - M 100 SEM 357
169 ROUSSEAU TRISTAN 03:40:35 SEM - M 101 SEM 638
170 BAILLIF SIMON 03:41:05 SEM - M 102 SEM 313
171 GICQUEL celine 03:41:07 SEF - F 10 eme F / 8 SEF 11
172 JAMIN PASCAL 03:41:11 V1M - M 37 V1M 463
173 PRENTOUT JULIEN 03:41:33 SEM - M 103 SEM 602
174 WARY CLEMENT 03:43:12 SEM - M 104 SEM 703
175 LE KHANH 03:43:28 SEM ACSP M 105 SEM 125
176 BRUNET CHRISTOPHE 03:43:35 V1M - M 38 V1M 342
177 HOARAU jimmy 03:45:26 V1M - M 39 V1M 208
178 MADEC TANGI 03:45:29 SEM - M 106 SEM 733
179 CHABAUD NADINE 03:45:33 V1F OUESTRAIL F 11 eme F / 3 V1F 353
180 TIPVEAU MARCEL 03:45:37 V1M - M 40 V1M 689
181 LAVOCAT MARIE ODILE 03:45:42 V1F CAPOSS F 12 eme F / 4 V1F 54
182 CHARLES christophe 03:45:44 V1M - M 41 V1M 98
183 JOUSSERAND MARION 03:46:06 SEF - F 13 eme F / 9 SEF 465
184 BURRILLON JOSEPH 03:46:25 SEM - M 107 SEM 344
185 PARNY Dany 03:46:43 SEM - M 108 SEM 259
186 DA CUNHA BORLIDO NATHALIE 03:46:55 SEF ACSP F 14 eme F / 10 SEF 373
187 SPECHT david 03:46:57 V1M - M 42 V1M 124
188 DROUT ALAIN 03:46:59 V1M - M 43 V1M 397
189 PRIMARD Guillaume 03:47:27 SEM - M 109 SEM 260
190 PARNY MICHEL 03:47:28 V3M - M 3 V3M 565
191 MURAZ LIONEL 03:47:34 SEM - M 110 SEM 729
192 DAMOUR JEAN FREDO 03:47:52 SEM - M 111 SEM 381
193 GARE FREDERIC 03:48:03 SEM ORT M 112 SEM 222
194 HOAREAU SEBASTIEN 03:48:09 V1M - M 44 V1M 456
195 PALOMAR ZORIO MARIA ISABEL 03:48:15 SEF - F 15 eme F / 11 SEF 730
196 TECHER KEVIN 03:48:32 SEM - M 113 SEM 229
197 DEMILE ALAIN 03:48:57 V1M - M 45 V1M 391
198 BAGLIN JEROME 03:49:06 SEM CALS SUD M 114 SEM 310
199 HOARAU giovanni 03:49:07 SEM - M 115 SEM 187
200 CRAPIS LAURENT 03:49:13 V1M - M 46 V1M 193
201 ROBIN MATHIEU 03:50:03 SEM - M 116 SEM 628
202 LAUDE SERGE 03:50:06 V3M - M 4 V3M 478
203 DUCHEMAN CHRISTOPHE 03:50:21 SEM - M 117 SEM 400
204 BEGON CLEMENT 03:50:43 SEM - M 118 SEM 211
205 RIVIERE JEAN BAPTISTE 03:51:28 V2M - M 16 V2M 620
206 HUSSON remi 03:51:55 SEM - M 119 SEM 273
207 BOURGEOIS MAXIME 03:52:12 SEM - M 120 SEM 336
208 FLORANCE Jean Patrick 03:52:26 SEM - M 121 SEM 270
209 CELESTIN ALEXANDRE 03:52:40 SEM - M 122 SEM 352
210 BEGUE YANNIS 03:52:57 V1M - M 47 V1M 326
211 FRANCO CHRISTOPHE 03:53:02 V1M DDC M 48 V1M 427
212 HUET LOUIS 0,1625 V2M - M 17 V2M 458
213 K/BIDI Joselito 03:54:02 V1M - M 49 V1M 112
214 CHAMMAS MATHIEU 03:54:30 SEM - M 123 SEM 39
215 SAUTRON FREDERIC 03:54:34 SEM - M 124 SEM 706
216 BIJOUX eric 03:54:37 SEM - M 125 SEM 216
217 PAYET Gilles Dominique 03:54:45 SEM - M 126 SEM 221
218 GUCHET PIERRE 03:54:58 SEM - M 127 SEM 716
219 MOUGNERES didier 03:55:17 V2M - M 18 V2M 173
220 FERON CHARLES 03:55:33 SEM - M 128 SEM 171
221 CAUSSANEL Guillaume 03:55:33 SEM - M 129 SEM 255
222 LAURET Jean Eric 03:55:48 SEM - M 130 SEM 499
223 HEEKENG Pierre 03:56:04 SEM - M 131 SEM 69
224 DOBARIA JONATHAN 03:56:11 SEM - M 132 SEM 233
225 GEAY Thomas 03:56:44 SEM - M 133 SEM 196
226 DUCHEMANE VICTORINE 03:57:15 SEF - F 16 eme F / 12 SEF 403
227 ENDOULMA JEAN HUGUES 03:57:18 V1M - M 50 V1M 223
228 DUCHEMANE SAMUEL 03:57:19 SEM - M 134 SEM 402
229 PAYET MICKAELLE 03:57:25 SEF CASL F 17 eme F / 13 SEF 579
230 GANOVA Alexandre 03:57:43 SEM - M 135 SEM 7
231 ANTOINETTE PHILIPPE 03:58:32 V1M - M 51 V1M 746
232 LEROY JEAN 03:58:37 ESM - M 4 ESM 749
233 MOREL Bertrand 03:58:55 SEM - M 136 SEM 34
234 TRAORE YANN 03:59:05 SEM - M 137 SEM 271
235 PIOTROWSKA PIERRE 03:59:08 V2M - M 19 V2M 595
236 GRONDIN anthony 03:59:29 ESM - M 5 ESM 68
237 FONTAINE michel 03:59:42 V3M - M 5 V3M 26
238 GUILLOT JESSY 03:59:43 SEF - F 18 eme F / 14 SEF 444
239 PARRA QUENTIN 03:59:48 SEM - M 138 SEM 566
240 NATIVEL PIERRE 04:00:45 SEM CAPOSS M 139 SEM 559
241 GRALL jonathan 04:00:52 SEM - M 140 SEM 81
242 HAN KWAN ERIC 04:00:54 V1M - M 52 V1M 736
243 BARC FLORENCE 04:00:54 SEF - F 19 eme F / 15 SEF 317
244 NICOLE Olivier 04:01:55 ESM - M 6 ESM 47
245 GONTHIER Loic 04:02:32 SEM - M 141 SEM 245
246 PRIANON YVANN 04:02:53 SEM - M 142 SEM 606
247 BARAZER JULIE 04:02:58 SEF - F 20 eme F / 16 SEF 145
248 FERRERE Jerome 04:02:58 ESM - M 7 ESM 78
249 SANDANCE SERGE 04:03:20 SEM - M 143 SEM 732
250 DELAUNAY MICKAEL 04:03:53 SEM - M 144 SEM 386
251 FOSSY MURIELLE 04:04:06 SEF - F 21 eme F / 17 SEF 426
252 RENNEVILLE DIDIER 04:04:12 SEM - M 145 SEM 611
253 ARNAUD Aurelien 04:04:29 SEM - F 146 SEM 74
254 BOYER GEOFFREY 04:04:31 ESM - M 8 ESM 337
255 GUAZZONE LEBON CHRISTINE 04:04:39 SEF - F 22 eme F / 18 SEF 443
256 PAYET KEVIN 04:04:42 SEM - M 147 SEM 578
257 SERY NICOLAS 04:04:43 SEM - M 148 SEM 651
258 GONTHIER philippe 04:05:08 SEM - M 149 SEM 236
259 LALLEMAND EMILIE 04:05:32 SEF DENIV F 23 eme F / 19 SEF 251
260 GRADEL GUILLAUME 04:05:53 SEM - M 150 SEM 435
261 BOURCEREAU FLORENTIN 04:06:01 SEM - M 151 SEM 335
262 FIX ERIC 04:06:44 V1M - M 53 V1M 257
263 BUTCHLE AGATHE 04:06:49 V2F CAPP F 24 eme F / 1 V2F 345
264 BIET MAXIME 04:06:56 SEM - M 152 SEM 330
265 AURE PATRICK 04:07:40 V1M OUESTRAIL M 54 V1M 10
266 MULOT PHILIPPE 04:07:41 V1M - M 55 V1M 553
267 AURECHE VINCENT 04:07:56 SEM - M 153 SEM 717
268 AURECHE GILBERT 04:07:56 V2M - M 20 V2M 718
269 FONTAINE LOLA 04:08:12 SEF - F 25 eme F / 20 SEF 423
270 FONTAINE JULIEN 04:08:12 SEM - M 154 SEM 422
271 PICARD PAUL FLORENT 04:08:18 SEM - M 155 SEM 129
272 MHOUMADIMSA DAVID 04:08:27 V1M - M 56 V1M 740
273 BAILLIF ELISABETH 04:08:30 V2F OUESTRAIL F 26 eme F / 2 V2F 311
274 BIESADA GREGOIRE 04:08:34 SEM - M 156 SEM 175
275 LEPINAY JEAN FRANCOIS 04:08:39 V2M - M 21 V2M 504
276 LEE SONG YIN SONIA 04:09:07 SEF ACSAL F 27 eme F / 21 SEF 490
277 HOARAU Bruno 04:09:40 V1M - M 57 V1M 5
278 BESSUDO THIBAUT 04:09:59 SEM - M 157 SEM 86
279 BEDIER FLORENCE 04:09:59 SEF - F 28 eme F / 22 SEF 85
280 MURE ERIC 04:10:01 V1M - M 58 V1M 121
281 PICARD THERESIEN 04:10:19 V3M - M 6 V3M 592
282 BAVOL JEAN NICOLE 04:10:24 SEM - M 158 SEM 322
283 LOUIS BRUNO 04:10:33 V1M - M 59 V1M 517
284 VESSIOT THOMAS 04:10:37 SEM - M 159 SEM 697
285 FONTAINE JEREMY 04:11:13 SEM - M 160 SEM 421
286 CLERE vincent 04:11:34 SEM - M 161 SEM 103
287 FOUMENAIGUE frederic 04:12:08 SEM - M 162 SEM 59
288 DISSLER ALEXANDRE 04:12:36 SEM - M 163 SEM 395
289 MAHE CELINE 04:12:39 V1F - F 29 eme F / 5 V1F 65
290 ATTAMA JEAN FRANCOIS 04:13:05 V1M CAPC M 60 V1M 262
291 LEBRETON Francois eric 04:13:08 V1M - M 61 V1M 213
292 RAZAKASON Christian 04:13:10 SEM - M 164 SEM 56
293 GIGAN MICHEL 04:13:41 SEM - M 165 SEM 265
294 LACONI JEAN PIERRE 04:13:50 V3M - M 7 V3M 471
295 VIADERC MAX 04:13:59 V2M - M 22 V2M 712
296 MALLET GALLIEN 04:14:01 SEM - M 166 SEM 524
297 SAUTRON BRICE 04:14:17 SEM - M 167 SEM 641
298 MARQUILLY David 04:14:30 V1M - M 62 V1M 205
299 DESMOUGIN MELODIE 04:14:33 SEF - F 30 eme F / 23 SEF 231
300 BALLESTA JULIEN 04:14:35 SEM DENIV M 168 SEM 202
301 PAYET WILLY 04:14:36 SEM RUN ODYSSEA M 169 SEM 151
302 HOAREAU CHRISTELLE 04:14:37 SEF COSPI F 31 eme F / 24 SEF 71
303 DIJOUX JULIEN 04:15:04 SEM - M 170 SEM 392
304 GOBARD Francois 04:15:12 SEM - M 171 SEM 244
305 GRONDIN JEAN BERNARD 04:15:19 V2M - M 23 V2M 436
306 AULAS ROMAIN 04:15:48 SEM MAOTEO M 172 SEM 291
307 AGNESSENS romain 04:16:14 SEM - M 173 SEM 161
308 ONESIME LAURENT 04:16:31 SEM - M 174 SEM 122
309 MICHON LAURENT 04:16:38 V1M - M 63 V1M 546
310 DE BAULNY LOUIS JEROME 04:17:13 V1M - M 64 V1M 383
311 NOEL JEAN LOUP 04:17:15 V2M - M 24 V2M 562
312 PHALIP ETIENNE 0,179166666666667 SEM - M 175 SEM 590
313 PAQUIRY ALAGAMA ROGER 04:18:04 V1M CALS SUD M 65 V1M 88
314 TECHER CLAIN CAMILLE 04:18:07 SEF DSA F 32 eme F / 25 SEF 169
315 SEGRET Nicolas 04:18:17 SEM - M 176 SEM 79
316 FILIPPI France 04:18:31 SEF - F 33 eme F / 26 SEF 46
317 DUBARD CLEMENT 04:18:37 V3M CCF RIV M 8 V3M 715
318 GRONDIN KEVIN 04:18:57 ESM CCF RIV M 9 ESM 439
319 PAYET CECILE 04:19:10 SEF DSA F 34 eme F / 27 SEF 570
320 COCHE MAINENTE SOPHIE 04:19:31 SEF - F 35 eme F / 28 SEF 365
321 PAYET Sebastien 04:19:45 SEM - M 177 SEM 135
322 PAYET ANNE JULIE 04:19:46 ESF - F 36 eme F / 1 ESF 134
323 DELVO FREDERIC 04:20:04 V1M - M 66 V1M 390
324 RIVIERE ERIC 04:20:21 SEM - M 178 SEM 33
325 MARIE DIdier 04:20:23 SEM - M 179 SEM 155
326 BIGOT Nicolas 04:20:23 SEM - M 180 SEM 150
327 GASTRIN YVANN 04:20:25 SEM - M 181 SEM 429
328 LI CHIANG YAO YANN 04:20:26 V1M CASL M 67 V1M 515
329 MEZINO FREDERIC 04:20:52 V1M - M 68 V1M 541
330 HEBERT Cecile 04:21:01 SEF - F 37 eme F / 29 SEF 252
331 IMIOLA JEROME 04:21:14 SEM - M 182 SEM 460
332 HIRSCHINGER DAVID 04:21:27 SEM - M 183 SEM 258
333 RICHAUD NATHALIE 04:21:58 V1F DSA F 38 eme F / 6 V1F 275
334 MARTIN JEAN LUC 04:22:02 V2M LA CHALOUP M 25 V2M 530
335 LIST GUNGOOSINGH CATHERINE 04:22:18 V2F COSPI F 39 eme F / 3 V2F 3
336 ESTEVE JEAN CHRISTIAN 04:22:20 V2M - M 26 V2M 409
337 DANDIN GILLES 04:22:36 SEM - M 184 SEM 209
338 COLLET ANTHONY 04:22:36 SEM - M 185 SEM 367
339 EMERY Elise 04:23:10 SEF - F 40 eme F / 30 SEF 293
340 GANDOLAS VINCENT 04:23:10 SEM - M 186 SEM 93
341 GONZALEZ BENOIT 04:23:10 SEM - M 187 SEM 434
342 POLLUX LUDO 04:23:21 SEM - M 188 SEM 759
343 FERRAND Manu 04:23:37 V1M - M 69 V1M 84
344 MAZEAU FABRICE 04:23:44 SEM - M 189 SEM 763
345 VIAN RAOUL 04:23:48 V2M - M 27 V2M 698
346 ALLAIN david 04:23:50 SEM - M 190 SEM 191
347 LOCK FAT Gregory 04:24:41 ESM - M 10 ESM 49
348 SILOTIA patrick 04:24:43 SEM - M 191 SEM 277
349 DELEDALLE CAPUCINE 04:25:38 SEF - F 41 eme F / 31 SEF 387
350 TIPVEAU ALINE 04:25:53 V1F - F 42 eme F / 7 V1F 685
351 LORION BRUNO 04:25:59 V1M - M 70 V1M 516
352 REBOUX ANNE HELENE 04:26:36 SEF - F 43 eme F / 32 SEF 755
353 LABBE TEDDY 04:26:50 SEM - M 192 SEM 470
354 CUVELIER HUGO 04:27:02 JUM - M 4 JUM 372
355 LHENORET ALAIN 04:27:47 SEM - M 193 SEM 513
356 PERRETTE SANDRINE 04:27:48 SEF - F 44 eme F / 33 SEF 588
357 HULIN CHRSTOPHE 04:27:50 V1M DENIV M 71 V1M 459
358 PAULIN VIRGINIE 04:27:51 SEF - F 45 eme F / 34 SEF 568
359 BOULEVART JEROME 04:27:55 SEM CSSDA M 194 SEM 102
360 RABEUX AURELIEN 04:27:55 SEM - F 195 SEM 227
361 MORTREUX LOIC 04:28:33 SEM - M 196 SEM 552
362 DE BROUWER ERIC 04:28:38 V2M DSA M 28 V2M 384
363 HOAREAU JONATHAN 04:28:40 SEM - M 197 SEM 753
364 GALENT Evelyne 04:28:41 SEF - F 46 eme F / 35 SEF 25
365 MEXENES Sebastien 04:28:42 SEM - M 198 SEM 28
366 LEVEQUE HELENE 04:28:53 SEF CALS SUD F 47 eme F / 36 SEF 511
367 BOUDILLET Franck 04:29:54 SEM - M 199 SEM 197
368 DAGARD Nicolas 04:30:25 SEM - M 200 SEM 214
369 HELLIER RONAN 04:30:26 SEM - M 201 SEM 446
370 MOIRON Pascale 04:30:27 V1F - F 48 eme F / 8 V1F 100
371 LENHARTOVA THIERRY 04:30:29 V1M - M 72 V1M 496
372 KLEIN Pauline 04:31:39 SEF - F 49 eme F / 37 SEF 226
373 DUGAIN JEAN MICHEL 04:32:13 V2M - M 29 V2M 404
374 CROCHET DENIS 04:32:21 V1M - M 73 V1M 370
375 LAVEAUD Aymeric 04:32:48 SEM - M 202 SEM 179
376 MARCHAND ROMAIN 04:33:03 SEM - M 203 SEM 525
377 ARTHEMISE FABRICE 04:33:43 SEM - M 204 SEM 305
378 PREVOST LAURINE 04:33:49 SEF - F 50 eme F / 38 SEF 603
379 GRONDIN CEDRIX 0,190277777777778 SEM - M 205 SEM 431
380 VAUGEOIS MATTHIEU 04:34:01 SEM - M 206 SEM 184
381 DONNARD ANAIS 04:34:02 SEF - F 51 eme F / 39 SEF 170
382 DIJOUX SAMUEL 04:34:20 SEM CALS SUD M 207 SEM 51
383 LE FUR Morgane 04:34:37 SEF - F 52 eme F / 40 SEF 152
384 LE FUR Maelle 04:34:40 ESF - F 53 eme F / 2 ESF 286
385 LALIRE SAMUEL 04:34:45 SEM - M 208 SEM 473
386 LOAEC JEAN PHILIPPE 04:35:08 SEM - M 209 SEM 280
387 SINAPAN LAURENT 04:35:28 SEM - M 210 SEM 658
388 BALAHACHI ISSA 04:36:02 V1M - M 74 V1M 705
389 FAUBOURG NOEL 04:36:06 V3M - M 9 V3M 149
390 LAURET MAX 04:36:14 SEM COSPI M 211 SEM 760
391 HAMON Christian 04:36:20 V1M - M 75 V1M 13
392 LEVEQUE LOUISA 04:36:32 V1F - F 54 eme F / 9 V1F 512
393 LUCAS CHARLES 04:36:41 V2M - M 30 V2M 519
394 DILIS ERWANN 04:36:54 SEM - M 212 SEM 393
395 MOLL VIRGINIE 04:36:57 SEF - F 55 eme F / 41 SEF 707
396 GRONDIN PASCAL OLIVIER 04:36:58 SEM - M 213 SEM 441
397 TAIDE PHILIPPE 04:36:59 V2M - M 31 V2M 670
398 LEPINAY FRANCOISE 04:37:09 V1F - F 56 eme F / 10 V1F 502
399 FAIVRE BRUNA 04:37:13 V1F - F 57 eme F / 11 V1F 413
400 RENOUARD Nicolas 04:37:19 SEM - M 214 SEM 201
401 SOPHIE DIDIER 04:38:00 V2M - M 32 V2M 663
402 IRAETA MATHIEU 04:38:09 SEM - M 215 SEM 461
403 FAISANDIER PHILIPPE 04:38:38 V2M - M 33 V2M 412
404 HOULES CELINE 04:38:41 SEF OUESTRAIL F 58 eme F / 42 SEF 164
405 SINGA ODILE 04:38:50 V1F - F 59 eme F / 12 V1F 44
406 MAZOUE FREDERIC 04:38:50 V1M - M 76 V1M 537
407 PAVADE JIMMY 04:38:59 SEM - M 216 SEM 569
408 MAISONNEUVE NADEGE 04:39:01 SEF - F 60 eme F / 43 SEF 523
409 VIRGINIUS IRENE 04:39:29 V2M - M 34 V2M 700
410 VILLALON ERIC 04:39:41 V1M - M 77 V1M 204
411 REBOUL YVAN 04:40:10 SEM - M 217 SEM 610
412 TACK OLIVIER 04:40:21 V1M - M 78 V1M 667
413 GRONDIN MARIE DENISE 04:41:20 V1F CAPP F 61 eme F / 13 V1F 73
414 BLARD JEROME 04:41:34 SEM - M 218 SEM 332
415 NALLET THOMAS 04:41:36 SEM - M 219 SEM 557
416 LAIGNEL ELVIE 04:41:37 SEF - F 62 eme F / 44 SEF 472
417 BOUCON EMMA 04:42:37 SEF COSPI F 63 eme F / 45 SEF 42
418 HOAREAU ISABELLE 04:42:45 V1F - F 64 eme F / 14 V1F 453
419 ROUQUETTE MATHIEU 04:43:03 SEM - M 220 SEM 637
420 FLORQUIN SOPHIE 04:43:08 SEF - F 65 eme F / 46 SEF 416
421 RETAILLEAU JEAN PHILIPPE 04:43:09 SEM - M 221 SEM 614
422 SACHOT Anthony 04:43:16 SEM - M 222 SEM 235
423 SMITH HERMINIE 04:43:16 V2F CAPC F 66 eme F / 4 V2F 89
424 GUICHARD CLAIRE 04:43:29 SEF - F 67 eme F / 47 SEF 192
425 DELPHINE LEONNEL 04:43:47 V4M - M 1 V4M 389
426 SAUTRON YANNICK 04:43:48 V1M CAPOSS M 79 V1M 506
427 KERKENI OTMAN 04:43:53 V1M - M 80 V1M 172
428 LAFOSSE rosaire 04:44:24 SEM - M 223 SEM 267
429 LEPINAY JIMMY 04:44:27 V1M - M 81 V1M 505
430 VOLTIGE YANNIS 04:44:38 SEM - M 224 SEM 702
431 BERYL frederic 04:44:50 SEM - M 225 SEM 159
432 LEPINAY JOEL 04:45:00 V1M - M 82 V1M 790
433 JACQUET NOEL 04:45:02 V1M - M 83 V1M 462
434 LEPINAY SEBASTIEN 04:45:09 ESM - M 11 ESM 507
435 TESSIER CHRISTIAN 04:46:22 V2M - M 35 V2M 678
436 DELORME MARINE 04:46:52 SEF - F 68 eme F / 48 SEF 388
437 HOARAU JIM STEPHANE 04:46:54 SEM - M 226 SEM 742
438 CHASSON MAXIME 04:46:54 SEM - M 227 SEM 358
439 SIRACUSE PHILIPPE 04:47:04 V2M - M 36 V2M 662
440 LEBON CAMILLE 04:47:20 V3M - M 10 V3M 488
441 LAU WEN TAI THIERRY 04:47:49 V1M - M 84 V1M 476
442 SAUTRON CELESTINE 04:48:39 V1F AAJM F 69 eme F / 15 V1F 643
443 ROBERT PATRICE 04:49:03 SEM - M 228 SEM 623
444 LEBON MARIE 04:49:12 V2F - F 70 eme F / 5 V2F 296
445 LE BRIS OLIVIER 04:49:34 SEM - M 229 SEM 486
446 SOURIOUX CECILE 04:49:43 SEF CALS SUD F 71 eme F / 49 SEF 664
447 BOILEAU GLADYS 04:50:15 SEF - F 72 eme F / 50 SEF 333
448 BUDEL CINDY 04:50:16 SEF - F 73 eme F / 51 SEF 343
449 LEBON bruno 04:50:32 SEM - M 230 SEM 143
450 SAUTRON JORDANE 04:50:40 SEM - M 231 SEM 642
451 CLAIN Alexandre 04:50:59 SEM - M 232 SEM 53
452 DUCHEMAN DAVID 04:51:12 SEM - M 233 SEM 401
453 MICHEL NATHALIE 04:51:26 SEF - F 74 eme F / 52 SEF 545
454 MICHEL BERTRAND 04:51:27 SEM - M 234 SEM 543
455 FONTAINE INGRID 04:51:28 SEF CAPP F 75 eme F / 53 SEF 217
456 BENARD FREDERIC 04:51:58 SEM - M 235 SEM 738
457 DILIS JEROME 04:52:12 SEM - M 236 SEM 394
458 VITRY Olivier 04:52:38 V1M - M 85 V1M 30
459 PRENTOUT DOROTHEE 04:52:38 V1F - F 76 eme F / 16 V1F 601
460 BODAR Marc 04:52:57 SEM - M 237 SEM 109
461 GRONDIN JESSICA 04:53:00 SEF - F 77 eme F / 54 SEF 437
462 POTHIER Anne Christine 04:53:29 V1F - F 78 eme F / 17 V1F 163
463 DIGUE RENAUD 04:53:30 V2M - M 37 V2M 240
464 PLENAR Virginie 04:53:43 SEF - F 79 eme F / 55 SEF 101
465 SCOLA ELSA 04:53:54 SEF - F 80 eme F / 56 SEF 648
466 MEVEL NATHALIE 04:54:00 V1F - F 81 eme F / 18 V1F 540
467 PAYET JEAN DANIEL 04:54:00 V2M - M 38 V2M 575
468 GASTRIN STEPHANIE 04:54:01 SEF - F 82 eme F / 57 SEF 428
469 FLYE SAINTE MARIE HELENE 04:54:16 SEF - F 83 eme F / 58 SEF 417
470 CALME CLAUDE 04:54:19 V2M - M 39 V2M 349
471 TETIA WILLIAM 04:54:22 V1M CSSDA M 86 V1M 118
472 FONTAINE Bruno 04:54:45 V1M - M 87 V1M 198
473 MARECHAL STEPHANE 04:55:09 V1M - M 88 V1M 737
474 PERRIN LUDOVIC 04:55:24 SEM - M 238 SEM 589
475 CADAR Georges 04:55:48 V2M - M 40 V2M 281
476 BERTIL JEAN PIERRE 04:56:51 V2M - M 41 V2M 328
477 DECROP GUILLAUME 04:56:53 SEM - M 239 SEM 385
478 NAPAL MAGALI 04:56:55 SEF - F 84 eme F / 59 SEF 558
479 PENNARUN MICKAEL 04:57:09 SEM - M 240 SEM 586
480 COCHELIN CLARISSE 04:57:21 SEF - F 85 eme F / 60 SEF 366
481 BOITEAU BARBARA 04:57:42 SEF - F 86 eme F / 61 SEF 127
482 LEPELTIER ANTHONY 04:58:12 SEM - M 241 SEM 497
483 CHEDA JEAN VINCENT 04:58:49 SEM - M 242 SEM 359
484 MARTIN ERIC 04:58:53 V1M - M 89 V1M 529
485 MENARD OLIVIER 04:59:01 SEM - M 243 SEM 538
486 ROBERT PATRICK 04:59:19 SEM - M 244 SEM 624
487 SINE FLAVIE 04:59:24 SEF - F 87 eme F / 62 SEF 661
488 K BIDI JEREMIE 04:59:35 SEM - M 245 SEM 468
489 REPELLIN PAUL 04:59:38 V3M - M 11 V3M 613
490 HIS HERVE 04:59:46 V2M - M 42 V2M 448
491 COURIO GWENDOLINE 05:00:48 SEF - F 88 eme F / 63 SEF 741
492 HOUNGCHUIKIENG EDDY 05:00:49 SEM - M 246 SEM 457
493 SURMACZ EMILIE 05:01:43 SEF - F 89 eme F / 64 SEF 666
494 MILON DOROTHEE 05:01:46 SEF - F 90 eme F / 65 SEF 547
495 FADUILHE GILLES 05:01:52 V1M - M 90 V1M 411
496 BEGUE LOUISETTE 05:02:04 V1F - F 91 eme F / 19 V1F 324
497 LAURET PIERRE 05:02:08 SEM - M 247 SEM 483
498 GANGAMA KEVIN 05:02:31 SEM - M 248 SEM 765
499 ROGER PAULINE 05:02:58 SEF - F 92 eme F / 66 SEF 630
500 BASILETTI ANGELO 05:03:04 SEM - M 249 SEM 320
501 CHARPENTIER LYDIE 05:03:25 V3F - F 93 eme F / 1 V3F 232
502 FARNY CLAIRE 05:03:37 SEF - F 94 eme F / 67 SEF 414
503 POTHIN SIMON 05:03:38 JUM CAPC M 5 JUM 177
504 TECHER DJAMIL 05:03:39 SEM - M 250 SEM 672
505 PUYRENIER LEO 05:04:30 SEM - M 251 SEM 608
506 FONTAINE ALFREDO 05:04:42 SEM - M 252 SEM 418
507 CADET SONIA 05:04:55 V1F RUN'A F 95 eme F / 20 V1F 348
508 BOYER PIERROT JEAN HUGUES 0,2125 V1M - M 91 V1M 249
509 SEVERIN DOMINIQUE 05:06:18 SEM - M 253 SEM 657
510 REBMANN CECILIA 05:06:28 SEF - F 96 eme F / 68 SEF 609
511 JUBIN Vincent 05:06:37 V1M - M 92 V1M 96
512 RENNETEAU MARIE 05:06:39 SEF - F 97 eme F / 69 SEF 278
513 SUACOT bernard 05:06:58 V1M - M 93 V1M 215
514 MORTREUX ADRIEN 05:08:08 ESM - M 12 ESM 551
515 BAFFOIN Sandrine 05:08:12 SEF - F 98 eme F / 70 SEF 107
516 ANQUETIL HELOISE 05:08:38 SEF - F 99 eme F / 71 SEF 303
517 LEFEVRE CHRISTOPHE 05:09:00 V2M - M 43 V2M 41
518 LEFEVRE ARLETTE 05:09:04 V2F - F 100 eme F / 6 V2F 40
519 DALMAT KARINE 05:09:15 SEF RP974 F 101 eme F / 72 SEF 375
520 HUE Sabrina 05:09:45 SEF - F 102 eme F / 73 SEF 63
521 ZAMY JEAN DANIEL 05:10:07 SEM - M 254 SEM 704
522 PHILIPPE FABIEN 05:11:30 V2M CASL M 44 V2M 194
523 GARDEBIEN VIVIEN 05:11:44 SEM DSA M 255 SEM 136
524 MUSSARD GERALDINE 05:12:01 SEF - F 103 eme F / 74 SEF 554
525 CANTA Christophe 05:12:06 SEM - M 256 SEM 189
526 MOTAIS DE NARBONNE Berenice 05:12:06 ESF - F 104 eme F / 3 ESF 190
527 LEFRANC CAMILLE 05:13:36 SEF - F 105 eme F / 75 SEF 493
528 HOYAUX KARINE 05:13:52 V1F - F 106 eme F / 21 V1F 761
529 GOLFIER GILLES 05:15:27 V1M - M 94 V1M 725
530 ZINUTTI Marianne 05:15:38 SEF - F 107 eme F / 76 SEF 181
531 HOAREAU ANTHONY 05:17:44 ESM - M 13 ESM 751
532 ARDOUIN CLOE 05:17:46 SEF - F 108 eme F / 77 SEF 304
533 PONTALBA FIDELIO 0,220833333333333 V2M - M 45 V2M 598
534 LEBRETON REINE LIA 05:18:08 V2F - F 109 eme F / 7 V2F 116
535 GIGAN ANGE MICHEL 05:18:13 V3M RDB M 12 V3M 430
536 ORANGE Odile Brigitte 05:18:15 V1F - F 110 eme F / 22 V1F 210
537 PAYET PASCAL 05:19:19 V1M - M 95 V1M 228
538 LECLERCQ INES 05:21:19 SEF - F 111 eme F / 78 SEF 247
539 EDME MARJORIE 05:21:40 SEF - F 112 eme F / 79 SEF 406
540 APCHIN ALICE 05:21:40 SEF - F 113 eme F / 80 SEF 728
541 PAYET FRED 05:21:48 V2M - M 46 V2M 572
542 BOYER MARINA 05:23:11 SEF - F 114 eme F / 81 SEF 338
543 BEGUE PASCAL LAURENT 05:23:27 SEM RDB M 257 SEM 325
544 LAPAIX MARION 05:23:43 SEF - F 115 eme F / 82 SEF 475
545 GERARD Charles Henri 05:24:17 V3M - M 13 V3M 144
546 BODAR Camille 05:25:43 SEF - F 116 eme F / 83 SEF 110
547 GROSSET PIERRE 05:25:49 SEM - M 258 SEM 442
548 GRALL Laureline 05:26:20 SEF - F 117 eme F / 84 SEF 83
549 GRALL Tiphanie 05:26:20 SEF - F 118 eme F / 85 SEF 269
550 PLANESSE DAVID 05:26:45 SEM - M 259 SEM 596
551 SPECHT Sylvie 05:27:01 SEF - F 119 eme F / 86 SEF 126
552 MAHE PATRICK 05:27:53 V1M - M 96 V1M 521
553 JUHEL MONIQUE 05:28:40 V2F ACSTB F 120 eme F / 8 V2F 466
554 JARRY MICHEL 05:29:42 V3M - M 14 V3M 464
555 CADAR Marie Claire 05:29:43 V2F - F 121 eme F / 9 V2F 282
556 SCHIEBER LAURIANNE 05:30:16 SEF - F 122 eme F / 87 SEF 646
557 LEBON ACHILLE 05:30:24 V4M - M 2 V4M 487
558 ROSSIGNOL JEAN PAUL 05:30:46 V2M - M 47 V2M 745
559 BABET BERNARD 05:31:01 V3M CCF RIV M 15 V3M 308
560 TURPIN SOREYA 05:31:52 SEF - F 123 eme F / 88 SEF 694
561 CRIDELICH CLAIRE 05:33:09 SEF - F 124 eme F / 89 SEF 369
562 DRULE JEAN EMMANUEL 05:33:10 V1M - M 97 V1M 398
563 FONTAINE Yannick 05:33:51 SEM - M 260 SEM 22
564 CHAMPOMIER ALINE 05:34:52 SEF - F 125 eme F / 90 SEF 356
565 VINGUEDASSALOM MARIE EXPEDIT 05:35:33 V2F - F 126 eme F / 10 V2F 699
566 MIRON GERALDINE 05:37:26 SEF - F 127 eme F / 91 SEF 548
567 LABBE JEAN FRANCOIS 05:37:40 V2M - M 48 V2M 469
568 MOREAU Delphine 05:38:45 SEF - F 128 eme F / 92 SEF 174
569 TREIL Francois xavier 05:40:07 V2M - M 49 V2M 186
570 CROCHET MARIE MICHELINE 05:40:17 V2F - F 129 eme F / 11 V2F 371
571 LAURET GAELLE 05:41:07 SEF - F 130 eme F / 93 SEF 480
572 TOUSSAINT JEAN SEBASTIEN 05:42:50 SEM CAPOSS M 261 SEM 225
573 CADET AUDREY 05:44:05 SEF - F 131 eme F / 94 SEF 346
574 CADET NICOLAS 05:44:06 V1M RDB M 98 V1M 347
575 SAPIN dominique 05:44:20 V3M - M 16 V3M 66
576 POTHIN MARIE ADELE 05:44:41 V1F - F 132 eme F / 23 V1F 599
577 GUICHARD PATRICIA 05:45:36 V1F - F 133 eme F / 24 V1F 148
578 BOYER Marie Sully 05:45:38 V1F - F 134 eme F / 25 V1F 80
579 GUICHARD WILLY 05:45:38 V1M - M 99 V1M 72
580 ELQOTBI ILYESS 05:52:29 SEM - M 262 SEM 407
581 LEPERLIER Veronique 05:52:34 V1F - F 135 eme F / 26 V1F 246
582 GERARD CHRISTIAN 05:52:39 V2M - M 50 V2M 17
583 SAINT ALME Marcel Philippe 05:53:12 V2M - M 51 V2M 12
584 LHOUMEAU EVA 05:55:24 SEF - F 136 eme F / 95 SEF 514
585 DUBARD ETIENNE 05:55:45 V2M CCF RIV M 52 V2M 399
586 MARTIN CAROLINE 05:57:34 V1F - F 137 eme F / 27 V1F 527
587 MASUR LAURY 05:57:34 SEF - F 138 eme F / 96 SEF 534
588 BEGUE BERTRAND 05:57:59 SEM - M 263 SEM 722
589 LEPINAY FABRICE 06:03:08 SEM - M 264 SEM 501
590 LELIEVRE Claire 06:03:22 SEF - F 139 eme F / 97 SEF 123
591 BISSON CAMILLE 06:04:07 SEM - M 265 SEM 188
592 ALCARAZ GAEL 06:05:47 SEM - M 266 SEM 301
593 DAMBREVILLE VIRGINIE 06:06:21 SEF - F 140 eme F / 98 SEF 378
594 DAMBREVILLE MICHAELLE 06:06:21 SEF - F 141 eme F / 99 SEF 377
595 CLAIN MARIE CLAIRE 06:07:16 V2F - F 142 eme F / 12 V2F 364
596 LECRIVAIN JULIE 06:07:36 SEF - F 143 eme F / 100 SEF 489
597 PELICOT JOCELYNE 06:07:49 V1F - F 144 eme F / 28 V1F 585
598 PABIS MALVINA 06:08:07 SEF - F 145 eme F / 101 SEF 564
599 LAURET JEAN GUILLAUME 06:09:56 SEM - M 267 SEM 481
600 MAREE Marie Suzette 06:10:08 V3F - F 146 eme F / 2 V3F 264
601 MARTINEZ ALEXIS 06:10:31 SEM - M 268 SEM 531
602 VANJY MARIE LINE 06:10:42 V1F - F 147 eme F / 29 V1F 115
603 FERREIRO Bruno 06:15:34 V1M - M 100 V1M 166
604 BEGUE LUC DANIEL 06:17:39 V2M - M 53 V2M 721
605 THOMAS CECILE 06:21:11 SEF - F 148 eme F / 102 SEF 684
606 ROUXEL MORGANE 06:25:34 SEF - F 149 eme F / 103 SEF 639
607 SAMAN LATCHIMY LEILA 06:28:07 SEF - F 150 eme F / 104 SEF 640
608 COURTOIS JULIE 06:28:09 SEF - F 151 eme F / 105 SEF 368
609 TIPVEAU GEORGES 06:28:09 V4M - M 3 V4M 686
610 PAYET PRAGUE 06:36:27 V1M - M 101 V1M 580
611 PAYET HERBERT 06:36:38 V1M - M 102 V1M 573
612 PICARD TEDDY 06:36:45 SEM - M 269 SEM 591
613 LE JEUNE floriane 06:37:23 SEF - F 152 eme F / 106 SEF 104
614 RICOCE ESTELLE 06:39:04 SEF - F 153 eme F / 107 SEF 617
615 DAMBREVILLE HENRIETTE 06:42:34 V2F - F 154 eme F / 13 V2F 376
616 LEPINAY EMMANUEL 07:01:34 SEM - M 270 SEM 500
617 FREDELISY PATRICIA 07:59:14 SEF - F 155 eme F / 108 SEF 735


ReferencementCe site est listé dans la catégorie Sport : Sports extrêmes Dictionnaire
| Accueil | La Réunion  Vue du ciel | Météo | Cyclones | Volcan | Cirques de Mafate , Cilaos , Salazie | Photos Randonnées | Randonnées Réunion: Randos Espiègle , Courses montagne | Diagonale des Fous |  Marathon des Sables | Voyages Les stats du site | Fonds écran | Plan du site | Blog de runraid | Galerie photos Sport Réunion |